THORAD AGENA D DEB, 42521

Orbit data source: Space-Track

THORAD AGENA D DEB, 42521 is space debris in SSO originally from a launch on Wed, 08 Apr 1970 UTC launched from the Air Force Western Test Range (AFWTR). Debris objects in space refer to the collection of defunct objects orbiting the Earth. Examples of debris include non-operational satellites, rocket bodies, and fragments generated from explosions, collisions, or faulty payload assembly.

Loading next visibility...
Identifier
42521, 1970-025SB
Orbit
SSO
Country
Flag of USUS
Related business
Manufacturer
Unknown
Mission
Spacecraft
Bus & Motor
Unknown
Mass
Unknown
Launch date (UTC)
1970-04-08 (56 years ago)
Launch vehicle
Unknown
Launch site
Air Force Western Test Range (AFWTR)
Object type
Payload
Rocket body
Debris
Shape & HBR
Unknown shape, 0.1 m
Radar Cross Section
Small (<0.1 m²)

Expand to show TLE details & history
Last TLE update: 2 days ago

TLE from 2 days ago
0 THORAD AGENA D DEB
1 42521U 70025SB  26171.14048792  .00000449  00000-0  47432-3 0  9990
2 42521  99.9449 234.6265 0016163 149.0784 211.1321 13.80618064632096
Epoch: 2026-06-20T03:22Z
TLE epoch observation values (Epoch: 2026-06-20T03:22:18.156Z)
Latitude
-0.00006°
Longitude
-84.30852°
Altitude
974.676 km
Speed
7.359 km/s
True Right ascension
15h 38m 30s
True Declination
0° 00' 00"
Sunlit
Object was in full shadow at epoch
Visualization orbit readout
Latitude
Unknown
Longitude
Unknown
Altitude
Unknown
Speed
Unknown
Apparent Right ascension
Unknown
Apparent Declination
Unknown
Sunlit
N/A
Visualization observer readout
Local Sidereal Time
21:54:26
Azimuth
Unknown
Elevation
Unknown
Doppler factor
Unknown
Orbital elements
Apogee altitude
970.828 km
Perigee altitude
947.11 km
Semi-major axis
7,337.106 km
Eccentricity
0.00162
Inclination
99.9449°
RAAN
234.6265°
Arg. of periapsis
149.0784°
True anomaly
211.03651°
Mean anomaly
211.1321°
Eccentric anomaly
211.08429°
Mean motion
3.45347 °/min
Orbital period
104.24 mins
BSTAR
0.00047432
Loading maneuver chart data...
Computing Atmospheric mass density...

Documentation

Showing up to 5 results
|